Regional Weather Roundup
Issued by NWS

Home | Current Version | Previous Version | Graphics & Text | Print | Product List | Glossary On
Versions: 1 2 3 4 5 6 7 8 9 10 11 12 13 14 15 16 17 18 19 20 21 22 23 24 25 26 27 28 29 30 31 32 33 34 35 36 37 38 39 40 41 42 43 44 45 46 47 48 49 50
000
ASUS43 KFSD 182302
RWRSD

WEATHER ROUNDUP FOR SOUTH DAKOTA
NATIONAL WEATHER SERVICE SIOUX FALLS SD
500 PM CST WED JAN 18 2017

NOTE: "FAIR" INDICATES FEW OR NO CLOUDS BELOW 12,000 FEET WITH NO
SIGNIFICANT WEATHER AND/OR OBSTRUCTIONS TO VISIBILITY.


SDZ001>005-009-010-012>017-190000-
NORTHWEST AND NORTH CENTRAL SOUTH DAKOTA

CITY           SKY/WX    TMP DP  RH WIND       PRES   REMARKS
BUFFALO          N/A     37  26  64 SW5       29.58S
FAITH            N/A     26  22  84 S13       29.64F WCI  15
MOBRIDGE       CLOUDY    28  19  69 SE14      29.65F WCI  17
$$

SDZ012>016-024>037-041>051-057-063-072>074-190000-
SOUTHWEST AND SOUTH CENTRAL SOUTH DAKOTA

CITY           SKY/WX    TMP DP  RH WIND       PRES   REMARKS
RAPID CTY ARPT CLOUDY    35  25  66 E6        29.63F
PIERRE         CLOUDY    30  23  75 SE5       29.68F WCI  25
CUSTER         CLEAR     53  18  25 SW6       29.69F
ELLSWORTH AFB  CLOUDY    41  30  65 SE5       29.62F
PHILIP         CLOUDY    34  26  72 SE3       29.66F
PINE RIDGE     CLOUDY    42  27  55 W3        29.68F
SPEARFISH      FAIR      50  32  50 CALM      29.64S
WINNER         FAIR      52  26  36 SE5       29.70F
$$

SDZ004>011-016>023-039-040-190000-
NORTHEAST SOUTH DAKOTA

CITY           SKY/WX    TMP DP  RH WIND       PRES   REMARKS
ABERDEEN       CLOUDY    29  21  72 S7        29.72F WCI  22
WATERTOWN      CLOUDY    33  27  78 S9        29.75S WCI  25
BROOKINGS      CLOUDY    36  31  82 S8        29.77S
SISSETON         N/A     39  29  67 SE7       29.72S
$$

SDZ017-020-022-023-036>040-048>070-190000-
SOUTHEAST SOUTH DAKOTA

CITY           SKY/WX    TMP DP  RH WIND       PRES   REMARKS
SIOUX FALLS    CLEAR     44  39  82 S12       29.80F
HURON          CLOUDY    38  30  73 SE5       29.74S
CHAMBERLAIN    CLEAR     43  32  65 E3        29.71F
MITCHELL       CLEAR     44  34  67 S9        29.75F
YANKTON        CLEAR     46  37  71 S12       29.79S
$$

ABBREVIATIONS USED IN REMARKS
   TC - TEMPERATURE IN CELSIUS
  WCI - WIND CHILL INDEX
   HX - HEAT INDEX
  VSB - VISIBILITY




USA.gov is the U.S. government's official web portal to all federal, state and local government web resources and services.